#Datum;Uhrzeit;WR;Pac;DaySum;Status;WR;Pac;DaySum;Status;Pdc1;Udc;Temp;WR;Pac;DaySum;Status;Pdc1;Udc;Temp;WR;Pac;DaySum;Status;Pdc1;Udc;Temp;WR;Pac;DaySum;Status;Pdc1;Pdc2;Udc1;Udc2;Temp;WR;Pac;DaySum;Status;Pdc1;Pdc2;Udc1;Udc2;Temp;WR;Pac;DaySum;Status;Pdc1;Udc;Temp;WR;Pac;DaySum;Status;Pdc1;Udc;Temp;WR;Pac;DaySum;Status;Pdc1;Udc;Temp
01.08.19;23:55:00;1;247;7178;0;2;0;30758;0;0;0;0;3;0;19907;0;0;0;0;4;0;27940;0;0;0;0;5;0;61636;0;0;0;0;0;0;6;0;46945;0;0;0;0;0;0;7;0;36342;0;0;0;0;8;0;36468;0;0;0;0;9;0;19839;0;0;0;0
01.08.19;23:50:00;1;221;7157;0;2;0;30758;0;0;0;0;3;0;19907;0;0;0;0;4;0;27940;0;0;0;0;5;0;61636;0;0;0;0;0;0;6;0;46945;0;0;0;0;0;0;7;0;36342;0;0;0;0;8;0;36468;0;0;0;0;9;0;19839;0;0;0;0
01.08.19;23:45:00;1;244;7139;0;2;0;30758;0;0;0;0;3;0;19907;0;0;0;0;4;0;27940;0;0;0;0;5;0;61636;0;0;0;0;0;0;6;0;46945;0;0;0;0;0;0;7;0;36342;0;0;0;0;8;0;36468;0;0;0;0;9;0;19839;0;0;0;0
01.08.19;23:40:00;1;248;7118;0;2;0;30758;0;0;0;0;3;0;19907;0;0;0;0;4;0;27940;0;0;0;0;5;0;61636;0;0;0;0;0;0;6;0;46945;0;0;0;0;0;0;7;0;36342;0;0;0;0;8;0;36468;0;0;0;0;9;0;19839;0;0;0;0
01.08.19;23:35:00;1;274;7098;0;2;0;30758;0;0;0;0;3;0;19907;0;0;0;0;4;0;27940;0;0;0;0;5;0;61636;0;0;0;0;0;0;6;0;46945;0;0;0;0;0;0;7;0;36342;0;0;0;0;8;0;36468;0;0;0;0;9;0;19839;0;0;0;0
01.08.19;23:30:00;1;257;7075;0;2;0;30758;0;0;0;0;3;0;19907;0;0;0;0;4;0;27940;0;0;0;0;5;0;61636;0;0;0;0;0;0;6;0;46945;0;0;0;0;0;0;7;0;36342;0;0;0;0;8;0;36468;0;0;0;0;9;0;19839;0;0;0;0
01.08.19;23:25:00;1;254;7053;0;2;0;30758;0;0;0;0;3;0;19907;0;0;0;0;4;0;27940;0;0;0;0;5;0;61636;0;0;0;0;0;0;6;0;46945;0;0;0;0;0;0;7;0;36342;0;0;0;0;8;0;36468;0;0;0;0;9;0;19839;0;0;0;0
01.08.19;23:20:00;1;275;7031;0;2;0;30758;0;0;0;0;3;0;19907;0;0;0;0;4;0;27940;0;0;0;0;5;0;61636;0;0;0;0;0;0;6;0;46945;0;0;0;0;0;0;7;0;36342;0;0;0;0;8;0;36468;0;0;0;0;9;0;19839;0;0;0;0
01.08.19;23:15:00;1;277;7008;0;2;0;30758;0;0;0;0;3;0;19907;0;0;0;0;4;0;27940;0;0;0;0;5;0;61636;0;0;0;0;0;0;6;0;46945;0;0;0;0;0;0;7;0;36342;0;0;0;0;8;0;36468;0;0;0;0;9;0;19839;0;0;0;0
01.08.19;23:10:00;1;275;6985;0;2;0;30758;0;0;0;0;3;0;19907;0;0;0;0;4;0;27940;0;0;0;0;5;0;61636;0;0;0;0;0;0;6;0;46945;0;0;0;0;0;0;7;0;36342;0;0;0;0;8;0;36468;0;0;0;0;9;0;19839;0;0;0;0
01.08.19;23:05:00;1;305;6962;0;2;0;30758;0;0;0;0;3;0;19907;0;0;0;0;4;0;27940;0;0;0;0;5;0;61636;0;0;0;0;0;0;6;0;46945;0;0;0;0;0;0;7;0;36342;0;0;0;0;8;0;36468;0;0;0;0;9;0;19839;0;0;0;0
01.08.19;23:00:00;1;366;6936;0;2;0;30758;0;0;0;0;3;0;19907;0;0;0;0;4;0;27940;0;0;0;0;5;0;61636;0;0;0;0;0;0;6;0;46945;0;0;0;0;0;0;7;0;36342;0;0;0;0;8;0;36468;0;0;0;0;9;0;19839;0;0;0;0
01.08.19;22:55:00;1;443;6904;0;2;0;30758;0;0;0;0;3;0;19907;0;0;0;0;4;0;27940;0;0;0;0;5;0;61636;2;0;0;0;0;0;6;0;46945;2;0;0;0;0;0;7;0;36342;0;0;0;0;8;0;36468;0;0;0;0;9;0;19839;0;0;0;0
01.08.19;22:50:00;1;323;6868;0;2;0;30758;0;0;0;0;3;0;19907;0;0;0;0;4;0;27940;0;0;0;0;5;0;61636;2;0;0;0;0;0;6;0;46945;2;0;0;0;0;0;7;0;36342;0;0;0;0;8;0;36468;0;0;0;0;9;0;19839;0;0;0;0
01.08.19;22:45:00;1;273;6840;0;2;0;30758;0;0;0;0;3;0;19907;0;0;0;0;4;0;27940;0;0;0;0;5;0;61636;2;0;0;0;0;0;6;0;46945;2;0;0;0;0;0;7;0;36342;0;0;0;0;8;0;36468;0;0;0;0;9;0;19839;0;0;0;0
01.08.19;22:40:00;1;318;6816;0;2;0;30758;0;0;0;0;3;0;19907;0;0;0;0;4;0;27940;0;0;0;0;5;0;61636;2;0;0;0;0;0;6;0;46945;2;0;0;0;0;0;7;0;36342;0;0;0;0;8;0;36468;0;0;0;0;9;0;19839;0;0;0;0
01.08.19;22:35:00;1;265;6790;0;2;0;30758;0;0;0;0;3;0;19907;0;0;0;0;4;0;27940;0;0;0;0;5;0;61636;2;0;0;0;0;0;6;0;46945;2;0;0;0;0;0;7;0;36342;0;0;0;0;8;0;36468;0;0;0;0;9;0;19839;0;0;0;0
01.08.19;22:30:00;1;279;6767;0;2;0;30758;0;0;0;0;3;0;19907;0;0;0;0;4;0;27940;0;0;0;0;5;0;61636;2;0;0;0;0;0;6;0;46945;2;0;0;0;0;0;7;0;36342;0;0;0;0;8;0;36468;0;0;0;0;9;0;19839;0;0;0;0
01.08.19;22:25:00;1;245;6744;0;2;0;30758;0;0;0;0;3;0;19907;0;0;0;0;4;0;27940;0;0;0;0;5;0;61636;2;0;0;0;0;0;6;0;46945;2;0;0;0;0;0;7;0;36342;0;0;0;0;8;0;36468;0;0;0;0;9;0;19839;0;0;0;0
01.08.19;22:20:00;1;315;6723;0;2;0;30758;0;0;0;0;3;0;19907;0;0;0;0;4;0;27940;0;0;0;0;5;0;61636;2;0;0;0;0;0;6;0;46945;2;0;0;0;0;0;7;0;36342;0;0;0;0;8;0;36468;0;0;0;0;9;0;19839;0;0;0;0
01.08.19;22:15:00;1;237;6699;0;2;0;30758;0;0;0;0;3;0;19907;0;0;0;0;4;0;27940;0;0;0;0;5;0;61636;2;0;0;0;0;0;6;0;46945;2;0;0;0;0;0;7;0;36342;0;0;0;0;8;0;36468;0;0;0;0;9;0;19839;0;0;0;0
01.08.19;22:10:00;1;238;6679;0;2;0;30758;0;0;0;0;3;0;19907;0;0;0;0;4;0;27940;0;0;0;0;5;0;61636;2;0;0;0;0;0;6;0;46945;2;0;0;0;0;0;7;0;36342;0;0;0;0;8;0;36468;0;0;0;0;9;0;19839;0;0;0;0
01.08.19;22:05:00;1;255;6659;0;2;0;30758;0;0;0;0;3;0;19907;0;0;0;0;4;0;27940;0;0;0;0;5;0;61636;2;0;0;0;0;0;6;0;46945;2;0;0;0;0;0;7;0;36342;0;0;0;0;8;0;36468;0;0;0;0;9;0;19839;0;0;0;0
01.08.19;22:00:00;1;198;6641;0;2;0;30758;0;0;0;0;3;0;19907;0;0;0;0;4;0;27940;0;0;0;0;5;0;61636;2;0;0;0;0;0;6;0;46945;2;0;0;0;0;0;7;0;36342;0;0;0;0;8;0;36468;0;0;0;0;9;0;19839;0;0;0;0
01.08.19;21:55:00;1;197;6624;0;2;0;30758;0;0;0;0;3;0;19907;0;0;0;0;4;0;27940;0;0;0;0;5;0;61636;2;0;0;0;0;0;6;0;46945;2;0;0;0;0;0;7;0;36342;0;0;0;0;8;0;36468;0;0;0;0;9;0;19839;0;0;0;0
01.08.19;21:50:00;1;244;6608;0;2;0;30758;0;0;0;0;3;0;19907;0;0;0;0;4;0;27940;0;0;0;0;5;0;61636;2;0;0;0;0;0;6;0;46945;2;0;0;0;0;0;7;0;36342;0;0;0;0;8;0;36468;0;0;0;0;9;0;19839;0;0;0;0
01.08.19;21:45:00;1;270;6586;0;2;0;30758;0;0;0;0;3;0;19907;0;0;0;0;4;0;27940;0;0;0;0;5;0;61636;2;0;0;0;0;0;6;0;46945;2;0;0;0;0;0;7;0;36342;0;0;0;0;8;0;36468;0;0;0;0;9;0;19839;0;0;0;0
01.08.19;21:40:00;1;247;6564;0;2;0;30758;0;0;0;0;3;0;19907;0;0;0;0;4;0;27940;0;0;0;0;5;0;61636;2;0;0;0;0;0;6;0;46945;2;0;0;0;0;0;7;0;36342;0;0;0;0;8;0;36468;0;0;0;0;9;0;19839;0;0;0;0
01.08.19;21:35:00;1;336;6543;0;2;0;30758;0;0;0;0;3;0;19907;0;0;0;0;4;0;27940;0;0;0;0;5;0;61636;2;0;0;0;0;0;6;0;46945;2;0;0;0;0;0;7;0;36342;0;0;0;0;8;0;36468;0;0;0;0;9;0;19839;0;0;0;0
01.08.19;21:30:00;1;357;6514;0;2;0;30758;0;0;0;0;3;0;19907;0;0;0;0;4;0;27940;0;0;0;0;5;0;61636;2;0;0;0;0;0;6;0;46945;2;0;0;0;0;0;7;0;36342;0;0;0;0;8;0;36468;0;0;0;0;9;0;19839;0;0;0;0
01.08.19;21:25:00;1;360;6484;0;2;0;30758;0;0;0;0;3;0;19907;0;0;0;0;4;0;27940;0;0;0;0;5;0;61636;2;0;0;0;0;0;6;0;46945;2;0;0;0;0;0;7;0;36342;0;0;0;0;8;0;36468;0;0;0;0;9;0;19839;0;0;0;0
01.08.19;21:20:00;1;317;6454;0;2;0;30758;0;0;0;0;3;0;19907;0;0;0;0;4;0;27940;0;0;0;0;5;0;61636;2;0;0;0;0;0;6;0;46945;2;0;0;0;0;0;7;0;36342;0;0;0;0;8;0;36468;0;0;0;0;9;0;19839;0;0;0;0
01.08.19;21:15:00;1;341;6430;0;2;0;30758;0;0;0;0;3;0;19907;0;0;0;0;4;0;27940;0;0;0;0;5;0;61636;2;0;0;0;0;0;6;0;46945;2;0;0;0;0;0;7;0;36342;0;0;0;0;8;0;36468;0;0;0;0;9;0;19839;0;0;0;0
01.08.19;21:10:00;1;439;6398;0;2;0;30758;0;0;0;0;3;0;19907;0;0;35;4;4;0;27940;0;0;0;0;5;0;61636;2;0;0;0;0;0;6;0;46945;2;0;0;0;0;0;7;0;36342;0;0;0;0;8;0;36468;0;0;0;0;9;0;19839;0;0;0;0
01.08.19;21:05:00;1;317;6362;0;2;0;30758;0;0;41;5;3;0;19907;6;0;283;34;4;0;27940;0;0;10;5;5;0;61636;2;0;0;0;0;0;6;0;46945;2;0;0;0;0;0;7;0;36342;0;0;0;0;8;0;36468;0;0;0;0;9;0;19839;0;0;0;0
01.08.19;21:00:00;1;224;6336;0;2;0;30758;6;0;283;33;3;0;19907;6;0;334;34;4;0;27940;2;0;87;34;5;0;61636;2;0;0;0;0;0;6;0;46945;2;0;0;0;0;0;7;0;36342;0;0;0;0;8;0;36468;0;0;0;0;9;0;19839;0;0;0;0
01.08.19;20:55:00;1;203;6317;0;2;0;30758;6;0;321;33;3;0;19907;6;4;378;35;4;0;27940;1;0;136;35;5;0;61636;1;0;0;299;297;41;6;0;46945;2;5;2;323;144;32;7;0;36342;0;0;213;26;8;0;36468;0;0;214;25;9;0;19839;0;0;227;23
01.08.19;20:50:00;1;236;6300;0;2;0;30758;6;0;347;34;3;1;19907;6;2;429;35;4;0;27940;1;0;177;35;5;0;61636;26;0;0;370;434;41;6;0;46945;23;3;4;505;180;40;7;0;36342;6;0;332;33;8;0;36468;6;0;335;32;9;0;19839;6;0;350;29
01.08.19;20:45:00;1;237;6280;0;2;0;30758;6;0;364;34;3;1;19907;6;4;445;35;4;0;27940;1;0;203;36;5;7;61636;1;0;0;374;572;42;6;0;46945;23;5;3;250;451;41;7;0;36342;6;0;381;33;8;0;36468;6;0;384;33;9;0;19839;6;0;410;29
01.08.19;20:40:00;1;309;6260;0;2;0;30758;6;0;382;35;3;2;19907;6;9;450;36;4;0;27940;3;0;213;36;5;34;61635;1;0;2;376;598;43;6;8;46945;23;7;12;470;520;42;7;0;36342;6;3;400;33;8;0;36468;6;1;415;33;9;0;19839;6;1;445;30
01.08.19;20:35:00;1;209;6234;0;2;14;30758;6;27;375;36;3;0;19906;6;0;507;36;4;5;27940;3;5;200;37;5;93;61632;4;6;17;355;565;43;6;59;46944;4;27;34;422;429;43;7;2;36342;6;4;433;34;8;0;36468;6;5;434;33;9;1;19839;3;3;451;30
01.08.19;20:30:00;1;195;6216;0;2;49;30757;4;86;354;37;3;9;19906;3;20;475;37;4;9;27939;3;9;198;37;5;121;61624;4;24;34;355;565;43;6;80;46938;4;39;43;421;429;43;7;4;36341;6;7;449;34;8;2;36468;6;7;447;34;9;1;19839;6;5;494;30
01.08.19;20:25:00;1;213;6200;0;2;69;30753;4;105;353;37;3;7;19906;6;13;489;37;4;15;27938;3;15;198;37;5;143;61613;4;34;40;355;565;43;6;93;46932;4;46;52;422;429;43;7;35;36341;4;71;354;34;8;26;36468;6;57;382;34;9;2;19839;6;7;498;31
01.08.19;20:20:00;1;243;6182;0;2;88;30747;4;126;354;38;3;48;19905;4;83;388;38;4;31;27937;3;33;197;38;5;156;61601;4;42;50;355;565;43;6;105;46924;4;51;58;422;429;43;7;49;36338;4;81;361;34;8;42;36466;4;84;405;34;9;2;19838;6;7;506;31
01.08.19;20:15:00;1;244;6162;0;2;111;30740;4;150;353;38;3;63;19901;4;103;439;38;4;45;27935;3;47;197;38;5;170;61588;4;54;55;355;565;44;6;109;46915;4;48;58;422;429;43;7;58;36334;4;93;383;35;8;45;36462;4;89;417;34;9;4;19838;6;9;505;31
01.08.19;20:10:00;1;286;6142;0;2;183;30731;4;225;355;39;3;103;19896;4;141;450;39;4;69;27931;3;72;198;38;5;210;61574;4;77;73;355;565;44;6;139;46906;4;71;79;422;429;43;7;81;36329;4;120;401;35;8;80;36458;4;116;377;34;9;5;19838;6;10;519;32
01.08.19;20:05:00;1;344;6116;0;2;324;30715;4;371;363;40;3;176;19887;4;220;447;39;4;95;27925;3;99;203;39;5;246;61556;4;90;91;355;565;44;6;163;46894;4;86;96;422;429;43;7;112;36323;4;148;399;35;8;105;36452;4;142;389;35;9;46;19837;4;70;357;32
01.08.19;20:00:00;1;261;6088;0;2;419;30688;4;471;369;40;3;177;19872;4;221;515;40;4;95;27917;5;99;202;39;5;253;61535;4;98;94;355;565;44;6;166;46880;4;81;88;422;429;43;7;121;36313;4;158;369;35;8;88;36443;4;121;332;29;9;29;19833;4;48;431;33
01.08.19;19:55:00;1;256;6066;0;2;343;30653;4;388;355;41;3;167;19857;4;210;484;40;4;99;27909;5;103;202;39;5;260;61514;4;101;99;355;565;44;6;174;46866;4;77;82;422;429;43;7;75;36303;4;99;239;21;8;115;36434;4;150;383;35;9;24;19831;6;34;285;19
01.08.19;19:50:00;1;215;6047;0;2;321;30624;4;369;358;42;3;170;19843;4;217;444;40;4;128;27901;5;134;204;40;5;306;61492;4;129;118;355;565;44;6;203;46851;4;102;108;422;429;43;7;162;36293;4;195;412;36;8;144;36424;4;183;383;35;9;48;19827;4;68;296;22
01.08.19;19:45:00;1;425;6028;0;2;585;30597;4;646;373;43;3;318;19829;4;364;417;41;4;187;27890;5;195;214;40;5;384;61466;4;171;154;355;565;44;6;255;46834;4;127;142;422;429;43;7;231;36279;4;274;426;36;8;206;36412;4;249;409;35;9;102;19822;4;134;470;34
01.08.19;19:40:00;1;328;5992;0;2;817;30550;4;887;369;44;3;428;19803;4;477;398;42;4;242;27875;5;252;220;41;5;454;61434;4;208;183;366;581;44;6;324;46812;4;147;171;472;502;43;7;293;36260;4;337;421;36;8;279;36395;4;319;439;36;9;124;19813;4;157;480;34
01.08.19;19:35:00;1;293;5967;0;2;972;30482;4;1049;373;45;3;501;19768;4;552;390;42;4;296;27855;5;308;229;41;5;523;61395;4;245;214;375;581;44;6;388;46785;4;215;225;519;511;43;7;363;36236;4;403;411;36;8;367;36372;4;410;431;36;9;152;19803;4;187;475;34
01.08.19;19:30:00;1;335;5941;0;2;1123;30401;4;1204;373;46;3;583;19726;4;635;393;42;4;338;27830;5;352;232;41;5;554;61352;4;257;234;381;583;44;6;413;46752;4;193;205;508;509;44;7;464;36206;4;504;379;37;8;391;36342;4;441;442;36;9;172;19790;4;206;470;35
01.08.19;19:25:00;1;313;5913;0;2;1222;30308;4;1309;373;46;3;628;19678;4;684;397;43;4;385;27802;5;401;215;42;5;600;61305;4;291;247;373;586;45;6;451;46717;4;221;234;523;513;44;7;619;36167;4;669;418;37;8;415;36309;4;463;404;37;9;188;19776;4;224;479;35
01.08.19;19:20:00;1;306;5887;0;2;1328;30206;4;1418;373;47;3;691;19625;4;752;420;43;4;616;27770;5;641;200;42;5;643;61255;4;298;267;375;605;45;6;491;46679;4;240;252;545;517;44;7;724;36116;4;785;438;37;8;511;36275;4;558;395;37;9;200;19760;4;236;479;36
01.08.19;19:15:00;1;316;5861;0;2;1374;30096;4;1467;376;48;3;735;19568;4;795;406;44;4;814;27719;5;848;203;43;5;686;61201;4;327;284;381;620;45;6;520;46639;4;273;281;546;521;44;7;754;36055;4;812;411;37;8;601;36233;4;658;439;37;9;211;19743;4;249;495;36
01.08.19;19:10:00;1;210;5836;0;2;1425;29982;4;1522;377;48;3;780;19507;4;841;417;44;4;952;27652;5;992;215;43;5;715;61144;4;346;291;383;605;45;6;550;46595;4;254;274;532;520;44;7;760;35992;4;812;385;38;8;672;36183;4;730;445;38;9;213;19726;4;252;501;36
01.08.19;19:05:00;1;194;5817;0;2;1472;29863;4;1571;368;49;3;814;19442;4;876;409;45;4;1026;27573;5;1069;222;44;5;774;61084;4;371;323;378;599;45;6;601;46549;4;284;300;538;523;44;7;881;35929;4;946;421;38;8;735;36127;4;781;443;38;9;220;19708;4;263;509;37
01.08.19;19:00:00;1;242;5801;0;2;1671;29741;4;1781;374;50;3;920;19375;4;986;412;45;4;1167;27488;5;1216;223;44;5;932;61018;4;455;390;389;613;45;6;709;46498;4;364;370;547;530;44;7;1103;35856;4;1182;443;38;8;860;36066;4;918;381;38;9;245;19690;4;289;510;37
01.08.19;18:55:00;1;232;5781;0;2;1852;29602;4;1971;373;51;3;1025;19298;4;1093;409;46;4;1315;27391;5;1370;225;45;5;1090;60939;4;539;455;391;631;46;6;829;46438;4;444;460;551;530;44;7;1283;35764;4;1363;452;39;8;1106;35994;4;1172;413;38;9;255;19669;4;293;427;38
01.08.19;18:50:00;1;200;5762;0;2;1960;29448;4;2078;365;52;3;1090;19213;4;1162;412;46;4;1428;27281;5;1487;221;45;5;1242;60848;4;619;523;391;624;46;6;946;46368;4;494;509;552;528;45;7;1406;35658;4;1490;446;39;8;1344;35903;4;1419;430;39;9;324;19648;4;361;353;38
01.08.19;18:45:00;1;230;5745;0;2;1957;29285;4;2076;366;52;3;1110;19122;4;1183;418;47;4;1429;27163;5;1488;223;45;5;1329;60744;4;667;561;389;626;46;6;1015;46289;4;501;515;550;531;45;7;1469;35542;4;1560;446;39;8;1488;35792;4;1561;445;39;9;556;19621;4;607;381;39
01.08.19;18:40:00;1;288;5725;0;2;1932;29122;4;2050;369;52;3;1109;19030;4;1183;436;47;4;1464;27044;5;1525;217;45;5;1473;60632;4;750;625;391;624;46;6;1113;46203;4;563;563;549;529;45;7;1481;35419;4;1563;449;39;8;1478;35668;4;1563;433;39;9;567;19575;4;615;364;33
01.08.19;18:35:00;1;288;5701;0;2;2321;28961;4;2455;364;53;3;1333;18938;4;1411;420;48;4;1758;26922;5;1832;222;46;5;1828;60509;4;945;789;392;628;47;6;1395;46109;4;721;732;554;535;45;7;1872;35295;4;1976;445;40;8;1885;35544;4;1993;442;40;9;983;19519;4;1054;485;41
01.08.19;18:30:00;1;321;5676;0;2;2193;28768;4;2325;371;53;3;1269;18827;4;1346;416;48;4;1679;26776;5;1749;221;46;5;1816;60356;4;945;778;393;636;47;6;1394;45993;4;720;721;550;528;45;7;1860;35140;4;1958;444;40;8;1870;35388;4;1970;439;40;9;998;19438;4;1074;492;41
01.08.19;18:25:00;1;338;5650;0;2;2004;28585;4;2126;368;53;3;1159;18721;4;1236;433;48;4;1527;26636;5;1590;218;46;5;1706;60205;4;877;730;391;617;47;6;1300;45877;4;603;620;548;531;45;7;1648;34985;4;1742;438;40;8;1653;35232;4;1744;436;40;9;883;19354;4;952;489;41
01.08.19;18:20:00;1;245;5622;0;2;2393;28416;4;2530;370;54;3;1410;18622;4;1494;431;48;4;1817;26506;5;1893;220;47;5;2053;60059;4;1072;890;388;627;47;6;1568;45766;4;825;822;554;531;45;7;2041;34845;4;2152;441;40;8;2050;35092;4;2159;438;40;9;1095;19280;4;1173;492;42
01.08.19;18:15:00;1;254;5604;0;2;2381;28216;4;2521;360;54;3;1426;18505;4;1508;428;48;4;1844;26355;5;1921;217;47;5;2143;59884;4;1110;933;388;627;47;6;1604;45633;4;831;823;547;532;45;7;1984;34676;4;2092;433;41;8;1996;34922;4;2097;442;41;9;1082;19189;4;1158;474;42
01.08.19;18:10:00;1;258;5582;0;2;2649;28016;4;2803;367;55;3;1595;18385;4;1686;440;49;4;2077;26199;5;2163;216;47;5;2480;59704;4;1322;1081;384;632;48;6;1902;45495;4;998;973;545;533;46;7;2322;34508;4;2441;436;41;8;2332;34752;4;2459;433;41;9;1266;19097;4;1351;491;42
01.08.19;18:05:00;1;319;5561;0;2;2729;27795;4;2884;362;55;3;1636;18252;4;1730;437;49;4;2152;26026;5;2242;216;47;5;2650;59497;4;1390;1154;395;629;48;6;2030;45336;4;1042;1024;546;531;46;7;2460;34314;4;2592;437;41;8;2469;34558;4;2601;437;41;9;1341;18991;4;1431;491;43
01.08.19;18:00:00;1;313;5538;0;2;2762;27568;4;2917;363;55;3;1657;18116;4;1757;449;49;4;2164;25847;5;2254;215;48;5;2764;59275;4;1468;1206;391;629;48;6;2116;45167;4;1095;1063;548;527;46;7;2508;34111;4;2644;438;41;8;2512;34354;4;2640;437;41;9;1345;18881;4;1434;488;43
01.08.19;17:55:00;1;393;5511;0;2;2982;27339;4;3146;361;56;3;1811;17978;4;1912;448;49;4;2356;25667;5;2455;216;48;5;3070;59044;4;1642;1341;388;625;48;6;2346;44990;4;1202;1173;551;528;46;7;2731;33901;4;2871;435;41;8;2733;34143;4;2872;429;41;9;1487;18767;4;1581;481;43
01.08.19;17:50:00;1;474;5477;0;2;3043;27090;4;3210;360;56;3;1855;17828;4;1961;445;49;4;2446;25471;5;2548;214;48;5;3264;58788;4;1750;1435;388;625;48;6;2473;44794;4;1283;1254;546;529;46;7;2820;33673;4;2966;430;42;8;2821;33916;4;2964;434;42;9;1524;18644;4;1619;483;43
01.08.19;17:45:00;1;467;5438;0;2;3144;26837;4;3315;355;56;3;1902;17673;4;2003;446;49;4;2535;25268;5;2641;214;48;5;3475;58516;4;1870;1529;389;629;48;6;2647;44586;4;1332;1305;544;530;46;7;2999;33438;4;3149;432;42;8;2997;33682;4;3151;433;42;9;1633;18517;4;1730;483;44
01.08.19;17:40:00;1;369;5399;0;2;3241;26575;4;3417;356;56;3;1943;17515;4;2049;427;50;4;2626;25057;5;2735;214;48;5;3685;58225;4;1982;1623;388;626;48;6;2816;44364;4;1474;1412;545;527;46;7;3108;33188;4;3268;434;42;8;3111;33431;4;3270;431;41;9;1697;18381;4;1798;481;44
01.08.19;17:35:00;1;338;5368;0;2;3341;26306;4;3524;361;56;3;1975;17353;4;2082;423;50;4;2714;24838;5;2827;215;48;5;3887;57917;4;2090;1715;387;624;48;6;2980;44129;4;1536;1505;547;531;46;7;3244;32930;4;3403;432;41;8;3244;33173;4;3410;433;41;9;1773;18240;4;1874;476;44
01.08.19;17:30:00;1;355;5338;0;2;3404;26027;4;3589;354;56;3;2067;17188;4;2178;437;50;4;2779;24612;5;2894;215;47;5;4069;57593;4;2177;1755;387;621;48;6;3113;43879;4;1592;1570;549;531;46;7;3342;32660;4;3510;431;41;8;3342;32903;4;3510;429;42;9;1828;18092;4;1936;480;44
01.08.19;17:25:00;1;1603;5290;0;2;3459;25744;4;3647;353;56;3;2161;17016;4;2276;441;50;4;2853;24381;5;2971;213;47;5;4234;57252;4;2293;1871;389;623;48;6;3242;43619;4;1671;1651;548;532;46;7;3449;32383;4;3621;433;41;8;3458;32625;4;3621;429;41;9;1893;17940;4;2001;487;44
01.08.19;17:20:00;1;2335;5136;0;2;3054;25456;4;3225;365;55;3;1907;16836;4;2015;449;49;4;2442;24143;5;2544;218;47;5;3908;56897;4;2101;1727;379;622;47;6;3119;43348;4;1630;1577;548;530;45;7;1902;32032;0;2001;370;34;8;2475;32342;4;2602;412;41;9;1373;17786;4;1461;466;43
01.08.19;17:15:00;1;1156;4939;0;2;3480;25198;4;3669;356;55;3;2032;16675;4;2145;445;50;4;2645;23936;5;2755;216;46;5;4195;56570;4;2269;1852;385;619;47;6;3212;43093;4;1684;1637;541;524;45;7;3702;31884;4;3887;438;41;8;3431;32125;4;3595;422;41;9;1771;17664;4;1875;472;44
01.08.19;17:10:00;1;273;4872;0;2;3750;24916;4;3955;371;54;3;2356;16517;4;2481;455;49;4;3184;23732;5;3316;218;45;5;5169;56174;4;2812;2290;393;626;47;6;3787;42797;4;1948;1923;553;533;45;7;4072;31575;4;4269;434;41;8;4039;31832;4;4235;436;41;9;2194;17510;4;2320;481;43
01.08.19;17:05:00;1;280;4849;0;2;3416;24605;4;3613;374;52;3;2132;16321;4;2249;442;48;4;2786;23468;5;2902;220;45;5;4212;55761;4;2270;1863;397;638;47;6;2728;42483;4;1381;1386;544;523;45;7;3149;31239;4;3310;442;41;8;3407;31499;4;3582;460;41;9;2025;17329;4;2147;495;43
01.08.19;17:00:00;1;288;4826;0;2;1425;24309;4;1522;366;51;3;980;16136;4;1054;465;48;4;1226;23224;5;1277;216;45;5;2105;55447;4;1108;906;385;620;48;6;1598;42244;4;800;826;527;526;46;7;1490;30954;4;1578;352;33;8;621;31014;0;665;263;25;9;915;17153;4;989;489;42
01.08.19;16:55:00;1;273;4802;0;2;1250;24164;4;1336;362;52;3;876;16032;4;947;470;48;4;1088;23093;5;1133;217;46;5;2020;55303;4;1040;877;379;618;48;6;1494;42130;4;773;786;531;523;46;7;1197;30771;4;1276;437;42;8;1200;30972;4;1273;433;42;9;636;17057;4;698;483;42
01.08.19;16:50:00;1;255;4779;0;2;859;24058;4;931;359;54;3;551;15957;4;609;441;49;4;674;23000;5;702;206;47;5;1378;55144;4;697;587;369;590;48;6;1065;42008;4;551;547;517;513;46;7;960;30674;4;1027;423;42;8;947;30875;4;1015;426;42;9;512;17005;4;565;468;43
01.08.19;16:45:00;1;312;4757;0;2;3325;23987;4;3507;353;56;3;2134;15911;4;2250;439;51;4;2829;22943;5;2946;207;48;5;4878;55031;4;2659;2162;376;610;48;6;3720;41920;4;1930;1888;527;521;46;7;3532;30594;4;3708;421;42;8;3058;30796;4;3213;412;42;9;1591;16963;4;1689;464;45
01.08.19;16:40:00;1;276;4731;0;2;3824;23735;4;4030;362;56;3;2461;15750;4;2585;431;51;4;3173;22731;5;3305;207;48;5;5526;54625;4;3019;2449;384;619;48;6;4136;41618;4;2150;2103;538;525;45;7;4454;30325;4;4675;421;42;8;4485;30558;4;4701;421;42;9;2475;16838;4;2612;464;45
01.08.19;16:35:00;1;214;4709;0;2;4187;23415;4;4409;355;55;3;2692;15543;4;2829;439;50;4;3594;22464;5;3743;211;47;5;6262;54169;4;3441;2786;382;628;47;6;4812;41272;4;2519;2449;538;525;45;7;4544;29955;4;4763;421;41;8;4540;30184;4;4768;426;41;9;2511;16632;4;2649;467;45
01.08.19;16:30:00;1;219;4691;0;2;4382;23067;4;4618;355;54;3;2816;15319;4;2957;441;49;4;3778;22165;5;3935;214;46;5;6601;53646;4;3621;2942;389;623;46;6;5054;40870;4;2609;2549;547;527;45;7;4732;29578;4;4959;429;41;8;4721;29806;4;4948;425;41;9;2604;16423;4;2747;468;44
01.08.19;16:25:00;1;237;4673;0;2;4149;22701;4;4373;369;51;3;2818;15085;4;2961;468;47;4;3804;21851;5;3963;218;44;5;6643;53093;4;3644;2960;392;632;46;6;5028;40449;4;2591;2546;551;532;45;7;4837;29184;4;5086;431;40;8;4845;29415;4;5082;439;40;9;2664;16208;4;2817;489;43
01.08.19;16:20:00;1;277;4653;0;2;2311;22362;4;2442;368;50;3;1289;14852;4;1376;467;47;4;1746;21535;5;1819;218;44;5;3034;52615;4;1608;1348;385;613;46;6;2377;40076;4;1224;1188;546;526;45;7;3489;28779;4;3667;454;40;8;3543;29009;4;3718;445;40;9;2044;15984;4;2170;493;41
01.08.19;16:15:00;1;304;4629;0;2;2636;22176;4;2795;369;49;3;1792;14748;4;1899;468;46;4;2283;21394;5;2378;221;43;5;4143;52371;4;2247;1827;392;622;46;6;3149;39888;4;1619;1584;542;526;45;7;1909;28484;4;2018;439;40;8;1669;28708;4;1768;447;40;9;948;15810;4;1023;481;41
01.08.19;16:10:00;1;345;4603;0;2;1779;21982;4;1895;370;49;3;1185;14613;4;1268;472;46;4;1610;21226;5;1677;218;43;5;3134;52085;4;1695;1355;385;624;46;6;2103;39668;4;1087;1120;526;521;45;7;1160;28336;4;1239;437;41;8;1144;28575;4;1225;443;41;9;610;15735;4;668;492;41
01.08.19;16:05:00;1;332;4574;0;2;1816;21838;4;1930;372;47;3;1274;14518;4;1357;451;46;4;1435;21096;5;1495;223;43;5;2471;51838;4;1321;1068;388;615;46;6;2231;39485;4;1185;1156;542;534;45;7;1374;28239;4;1451;430;41;8;1356;28479;4;1443;439;41;9;726;15684;4;789;490;42
01.08.19;16:00:00;1;264;4546;0;2;1393;21695;4;1483;370;47;3;896;14419;4;967;481;45;4;1170;20983;5;1219;224;43;5;2592;51577;4;1383;1112;388;625;46;6;1941;39279;4;1008;994;558;541;45;7;1577;28126;4;1654;289;27;8;3010;28367;4;3167;437;41;9;1606;15624;4;1707;495;42
01.08.19;15:55:00;1;264;4524;0;2;1220;21580;4;1307;369;47;3;783;14345;4;850;479;45;4;1014;20886;5;1056;221;43;5;2189;51352;4;1139;948;388;618;47;6;1678;39110;4;859;875;545;533;45;7;1437;27960;4;1519;437;42;8;1431;28124;4;1513;442;42;9;774;15494;4;839;494;42
01.08.19;15:50:00;1;266;4502;0;2;1196;21478;4;1282;371;47;3;766;14279;4;835;482;45;4;990;20801;5;1031;222;44;5;2094;51170;4;1089;904;386;620;47;6;1606;38971;4;851;836;542;528;46;7;1408;27841;4;1489;438;42;8;1398;28005;4;1482;438;42;9;751;15430;4;817;485;43
01.08.19;15:45:00;1;288;4480;0;2;1337;21378;4;1426;371;48;3;853;14215;4;924;474;46;4;1108;20719;5;1154;222;44;5;2307;50995;4;1213;1000;383;619;47;6;1756;38837;4;911;891;542;523;46;7;1490;27721;4;1581;438;43;8;1482;27887;4;1567;436;43;9;796;15366;4;861;483;43
01.08.19;15:40:00;1;326;4456;0;2;1491;21267;4;1587;370;48;3;954;14144;4;1031;482;46;4;1247;20626;5;1299;221;44;5;2617;50798;4;1388;1137;389;622;47;6;1966;38687;4;1000;986;546;527;46;7;1658;27597;4;1756;438;43;8;1657;27764;4;1751;437;43;9;897;15301;4;967;483;44
01.08.19;15:35:00;1;300;4428;0;2;1544;21142;4;1643;368;49;3;1001;14064;4;1076;480;46;4;1309;20522;5;1364;216;45;5;2793;50577;4;1496;1209;386;627;47;6;2103;38519;4;1060;1060;542;533;47;7;2258;27459;4;2376;438;44;8;2376;27626;4;2509;431;44;9;1178;15226;4;1258;485;45
01.08.19;15:30:00;1;239;4404;0;2;1321;21013;4;1415;371;50;3;850;13981;4;922;477;46;4;1111;20413;5;1157;218;45;5;2759;50353;4;1475;1186;385;617;48;6;1799;38347;4;900;908;540;526;47;7;1511;27277;4;1599;436;44;8;1505;27439;4;1595;435;44;9;822;15131;4;887;485;45
01.08.19;15:25:00;1;222;4384;0;2;1526;20902;4;1627;363;51;3;982;13910;4;1060;472;47;4;1389;20320;5;1446;222;45;5;3593;50135;4;1951;1534;383;631;48;6;2479;38184;4;1250;1242;543;536;47;7;1990;27150;4;2103;436;45;8;1997;27314;4;2111;439;45;9;1108;15063;4;1188;482;46